Location: Newark
(44.3248°N, 23.7839°E)
Time: 18:24:11
(UTC+00:00)

AO-91 - Visible Passes

Search period start: 22 April 2024 00:00
Search period end: 02 May 2024 00:00
Orbit: 441 x 743 km, 97.6° (Epoch: 22 April)

Date Brightness Start Highest point End Pass type
(mag) Time Alt. Az. Time Alt. Az. Time Alt. Az.
22 Apr ? 20:15:54 10° N 20:17:17 23° N 20:17:17 23° N visible
23 Apr ? 20:24:25 10° N 20:26:00 25° N 20:26:00 25° N visible
24 Apr ? 20:32:57 10° N 20:34:40 26° NNW 20:34:40 26° NNW visible
25 Apr ? 20:41:28 10° N 20:43:19 25° NNW 20:43:19 25° NNW visible
26 Apr ? 19:14:58 10° NE 19:15:21 12° ENE 19:15:21 12° ENE visible
26 Apr ? 20:49:59 10° N 20:51:55 23° NW 20:51:55 23° NW visible
27 Apr ? 19:22:59 10° NE 19:23:55 15° ENE 19:23:55 15° ENE visible
27 Apr ? 20:58:31 10° NNW 21:00:29 21° NW 21:00:29 21° NW visible
28 Apr ? 19:31:03 10° NE 19:32:27 19° NE 19:32:27 19° NE visible
28 Apr ? 21:07:03 10° NNW 21:09:01 18° WNW 21:09:01 18° WNW visible
29 Apr ? 19:39:08 10° NNE 19:40:57 25° NE 19:40:57 25° NE visible
29 Apr ? 21:15:39 10° NNW 21:17:31 15° WNW 21:17:31 15° WNW visible
30 Apr ? 19:47:14 10° NNE 19:49:25 32° NE 19:49:25 32° NE visible
30 Apr ? 21:24:20 10° NW 21:25:51 12° WNW 21:26:00 12° WNW visible
01 May ? 19:55:21 10° NNE 19:57:52 42° NE 19:57:52 42° NE visible
01 May ? 21:33:31 10° NW 21:33:59 10° WNW 21:34:25 10° WNW visible
